カタログに戻る

MT-CUBE-2

Lost科学MEO
NORAD 53106·PAYLOAD·🇫🇷 France

打ち上げ Jul 13, 2022 から Guiana Space Centre

Loading…

次のパス (今後24時間)

TLE

古いSource: Space-Track

元期: Jun 16, 2025, 07:51 UTC

1 53106U 22080B   25167.32760529 -.00000003  00000-0  00000-0 0  9996
2 53106  70.1560  65.9804 0008358  24.6429 335.4629  6.42557409 68669

AllMySatでMT-CUBE-2をリアルタイム追跡

Download on the App Store